Location: Goettingen
(51.5300°N, 9.9433°E)
Time: 08:58:19
(UTC+02:00)

ISS - Pass Details

Date: 14 March 2018
Orbit: 403 x 408 km, 51.6° (Epoch: 24 June)

Event Time Altitude Azimuth Distance (km) Brightness Sun altitude
Exits shadow 03:54:21 27° 90° (E) 822 -1.8 -25.1°
Drops below altitude 10° 03:56:01 10° 92° (E) 1,481 -0.2 -24.9°
Sets 03:58:06 0° 93° (E) 2,340 0.9 -24.6°
